IW9GDC-13 Weather Reports


time (UTC)temp
F
wind
direction
speed
knots
gust
knots
rain 1hr
in
rain 24hr
in
rain mn
in
humidity
%
barometer
mb
20260507103517 73 180 13.0 24.3 0.00 0.00 0.00 37 1011.8
20260507103017 73 180 11.3 23.5 0.00 0.00 0.00 37 1011.5
20260507102516 73 158 10.4 24.3 0.00 0.00 0.00 36 1011.6
20260507102016 74 135 11.3 19.1 0.00 0.00 0.00 36 1011.7
20260507101517 74 158 13.9 30.4 0.00 0.00 0.00 34 1011.6
20260507101017 74 135 11.3 30.4 0.00 0.00 0.00 36 1011.9
20260507100516 74 158 8.7 14.8 0.00 0.00 0.00 37 1012.0
20260507100016 74 158 12.2 20.9 0.00 0.00 0.00 36 1012.1
20260507095537 74 158 12.2 19.1 0.00 0.00 0.00 35 1012.1
20260507095016 75 158 13.9 20.0 0.00 0.00 0.00 35 1012.1
20260507094517 74 180 13.0 27.8 0.00 0.00 0.00 34 1012.1
20260507094016 74 135 13.0 21.7 0.00 0.00 0.00 37 1012.1
20260507093536 74 135 13.9 22.6 0.00 0.00 0.00 35 1012.1
20260507093037 73 158 13.9 25.2 0.00 0.00 0.00 38 1012.0
20260507092537 74 180 13.9 28.7 0.00 0.00 0.00 34 1012.0
20260507092016 74 180 16.5 28.7 0.00 0.00 0.00 35 1012.1
20260507091537 73 180 12.2 23.5 0.00 0.00 0.00 36 1012.0
20260507091036 73 180 13.0 22.6 0.00 0.00 0.00 39 1012.0
20260507090516 73 180 11.3 18.2 0.00 0.00 0.00 39 1012.1
20260507090016 73 158 11.3 23.5 0.00 0.00 0.00 41 1012.0
20260507085516 72 180 11.3 24.3 0.00 0.00 0.00 41 1012.3
20260507085016 72 180 9.6 19.1 0.00 0.00 0.00 42 1012.2
20260507084537 72 158 11.3 17.4 0.00 0.00 0.00 43 1012.3
20260507084036 72 180 13.0 23.5 0.00 0.00 0.00 40 1012.4
20260507083536 71 180 12.2 20.0 0.00 0.00 0.00 41 1012.4
20260507083016 71 180 9.6 17.4 0.00 0.00 0.00 43 1012.3
20260507082516 71 180 11.3 20.0 0.00 0.00 0.00 43 1012.4
20260507082016 71 180 9.6 18.2 0.00 0.00 0.00 43 1012.3
20260507081516 71 180 10.4 17.4 0.00 0.00 0.00 41 1012.4
20260507081036 71 180 8.7 16.5 0.00 0.00 0.00 45 1012.3
20260507080536 71 158 9.6 18.2 0.00 0.00 0.00 46 1012.5
20260507080016 71 180 7.0 12.2 0.00 0.00 0.00 46 1012.5
20260507075516 70 180 9.6 16.5 0.00 0.00 0.00 47 1012.6
20260507075016 71 180 7.8 13.0 0.00 0.00 0.00 45 1012.8
20260507074516 71 180 8.7 13.0 0.00 0.00 0.00 44 1012.8
20260507074036 71 135 7.0 15.6 0.00 0.00 0.00 44 1012.8
20260507073516 71 135 7.0 12.2 0.00 0.00 0.00 43 1013.0
20260507073016 71 158 5.2 10.4 0.00 0.00 0.00 44 1013.1
20260507072516 71 158 5.2 13.9 0.00 0.00 0.00 43 1013.2
20260507072016 70 180 6.1 11.3 0.00 0.00 0.00 44 1013.0
20260507071516 70 180 7.8 14.8 0.00 0.00 0.00 44 1013.1
20260507071036 70 180 8.7 14.8 0.00 0.00 0.00 44 1013.1
20260507070516 70 180 8.7 16.5 0.00 0.00 0.00 45 1013.2
20260507070016 70 180 7.8 14.8 0.00 0.00 0.00 45 1013.3
20260507065516 70 158 6.1 15.6 0.00 0.00 0.00 44 1013.4
20260507065016 70 158 5.2 10.4 0.00 0.00 0.00 44 1013.4
20260507064516 69 158 7.8 14.8 0.00 0.00 0.00 42 1013.7
20260507064016 69 158 9.6 16.5 0.00 0.00 0.00 43 1013.8
20260507063516 69 180 5.2 9.6 0.00 0.00 0.00 44 1013.8
20260507063016 68 180 6.1 11.3 0.00 0.00 0.00 44 1013.7
20260507062516 68 158 7.8 14.8 0.00 0.00 0.00 44 1013.8
20260507062016 68 180 5.2 13.9 0.00 0.00 0.00 46 1013.8
20260507061516 68 203 5.2 9.6 0.00 0.00 0.00 46 1013.8
20260507061018 68 180 6.1 11.3 0.00 0.00 0.00 45 1013.9
20260507060518 67 180 6.1 11.3 0.00 0.00 0.00 45 1013.8
20260507060038 67 203 7.0 11.3 0.00 0.00 0.00 47 1013.7
20260507055518 67 203 7.8 13.0 0.00 0.00 0.00 49 1013.7
20260507055018 67 203 7.8 13.9 0.00 0.00 0.00 48 1013.7
20260507054518 67 203 6.1 11.3 0.00 0.00 0.00 50 1013.8
20260507054018 67 225 7.8 13.0 0.00 0.00 0.00 50 1013.8
20260507053538 67 225 5.2 10.4 0.00 0.00 0.00 51 1013.8
20260507053018 66 225 7.0 12.2 0.00 0.00 0.00 52 1013.8
20260507052518 66 225 6.1 9.6 0.00 0.00 0.00 53 1013.9
20260507052038 66 225 4.3 11.3 0.00 0.00 0.00 55 1013.8
20260507051538 66 225 7.0 13.9 0.00 0.00 0.00 54 1013.9
20260507051018 66 225 7.0 11.3 0.00 0.00 0.00 58 1013.9
20260507050517 66 225 8.7 13.9 0.00 0.00 0.00 56 1013.9
20260507050018 65 225 7.0 13.0 0.00 0.00 0.00 59 1013.8
20260507045518 65 225 8.7 13.0 0.00 0.00 0.00 60 1013.7
20260507045018 65 203 7.8 12.2 0.00 0.00 0.00 60 1014.0
20260507044517 65 203 7.8 15.6 0.00 0.00 0.00 59 1014.1
20260507044019 66 225 6.1 11.3 0.00 0.00 0.00 58 1014.2
20260507043518 66 203 7.0 13.0 0.00 0.00 0.00 58 1014.1
20260507043017 66 180 3.5 8.7 0.00 0.00 0.00 56 1014.2
20260507042518 66 158 6.1 13.0 0.00 0.00 0.00 54 1014.1
20260507042017 66 180 7.0 11.3 0.00 0.00 0.00 54 1014.2
20260507041518 66 203 6.1 11.3 0.00 0.00 0.00 53 1014.2
20260507041018 66 180 5.2 10.4 0.00 0.00 0.00 53 1014.3
20260507040517 66 180 5.2 11.3 0.00 0.00 0.00 53 1014.2
20260507040018 66 180 5.2 10.4 0.00 0.00 0.00 53 1014.3
20260507035517 66 158 3.5 7.8 0.00 0.00 0.00 53 1014.1
20260507035038 66 180 3.5 6.1 0.00 0.00 0.00 53 1014.1
20260507034538 66 180 2.6 6.1 0.00 0.00 0.00 53 1014.0
20260507034038 66 203 5.2 9.6 0.00 0.00 0.00 53 1014.2
20260507033517 66 203 3.5 7.0 0.00 0.00 0.00 52 1014.0
20260507033017 66 203 4.3 7.8 0.00 0.00 0.00 53 1013.9
20260507032518 65 203 2.6 5.2 0.00 0.00 0.00 54 1013.9
20260507032018 65 203 2.6 5.2 0.00 0.00 0.00 55 1013.9
20260507031557 65 225 2.6 4.3 0.00 0.00 0.00 55 1013.9
20260507031017 65 225 3.5 7.8 0.00 0.00 0.00 57 1014.0
20260507030518 65 203 1.7 6.1 0.00 0.00 0.00 58 1013.8
20260507030017 65 225 5.2 8.7 0.00 0.00 0.00 58 1013.9
20260507025517 65 225 4.3 7.8 0.00 0.00 0.00 59 1013.8
20260507025017 65 225 6.1 10.4 0.00 0.00 0.00 61 1013.8
20260507024517 64 225 5.2 10.4 0.00 0.00 0.00 64 1013.9
20260507024017 64 225 4.3 7.8 0.00 0.00 0.00 66 1013.7
20260507023517 64 248 4.3 7.8 0.00 0.00 0.00 69 1013.7
20260507023017 63 225 4.3 8.7 0.00 0.00 0.00 74 1014.0
20260507022537 63 203 3.5 6.1 0.00 0.00 0.00 77 1013.8
20260507022017 63 225 4.3 6.1 0.00 0.00 0.00 79 1013.8
20260507021517 63 225 7.8 11.3 0.00 0.00 0.00 81 1014.0
20260507021017 62 225 7.0 11.3 0.00 0.00 0.00 82 1014.2
20260507020517 62 225 5.2 9.6 0.00 0.00 0.00 83 1014.2
20260507020018 63 225 7.0 12.2 0.00 0.00 0.00 83 1014.3
20260507015517 63 203 5.2 10.4 0.00 0.00 0.00 81 1014.1
20260507015017 62 203 5.2 9.6 0.00 0.00 0.00 82 1013.9
20260507014517 62 203 4.3 11.3 0.00 0.00 0.00 83 1014.1
20260507014017 62 180 3.5 6.1 0.00 0.00 0.00 83 1014.1
20260507013517 62 158 2.6 4.3 0.00 0.00 0.00 82 1014.2
20260507013017 63 180 2.6 3.5 0.00 0.00 0.00 82 1014.5
20260507012517 63 158 2.6 4.3 0.00 0.00 0.00 82 1014.5
20260507012037 63 158 3.5 6.1 0.00 0.00 0.00 82 1014.5
20260507011517 63 180 1.7 3.5 0.00 0.00 0.00 80 1014.4
20260507011017 63 158 1.7 4.3 0.00 0.00 0.00 79 1014.5
20260507010517 63 158 0.9 2.6 0.00 0.00 0.00 79 1014.6
20260507010017 63 180 1.7 3.5 0.00 0.00 0.00 79 1014.7
20260507005517 63 180 1.7 5.2 0.00 0.00 0.00 78 1014.6
20260507005017 63 180 1.7 3.5 0.00 0.00 0.00 78 1014.6
20260507004537 63 158 1.7 2.6 0.00 0.00 0.00 78 1014.6
20260507004017 63 180 0.9 2.6 0.00 0.00 0.00 78 1014.7
20260507003517 63 0.0 1.7 0.00 0.00 0.00 78 1014.7
20260507003017 63 158 0.9 2.6 0.00 0.00 0.00 78 1014.7
20260507002517 63 203 0.9 1.7 0.00 0.00 0.00 78 1014.8
20260507002017 63 180 0.9 2.6 0.00 0.00 0.00 78 1014.8
20260507001517 63 180 1.7 5.2 0.00 0.00 0.00 78 1014.8
20260507001017 63 203 3.5 6.1 0.00 0.00 0.00 78 1014.8
20260507000517 63 135 3.5 8.7 0.00 0.00 0.00 78 1014.8
20260507000017 63 158 2.6 5.2 0.00 0.00 0.00 78 1014.7
20260506235517 63 158 3.5 6.1 0.00 0.00 0.00 78 1014.8
20260506235017 63 158 2.6 10.4 0.00 0.00 0.00 79 1014.7
20260506234517 63 158 3.5 9.6 0.00 0.00 0.00 79 1014.8
20260506234017 63 158 4.3 7.8 0.00 0.00 0.00 79 1014.9
20260506233517 63 158 4.3 9.6 0.00 0.00 0.00 80 1014.9
20260506233017 63 158 5.2 8.7 0.00 0.00 0.00 80 1014.9
20260506232517 63 180 4.3 9.6 0.00 0.00 0.00 80 1014.8
20260506232017 63 180 5.2 12.2 0.00 0.00 0.00 79 1014.8
20260506231517 63 158 5.2 13.0 0.00 0.00 0.00 79 1014.8
20260506231017 63 158 5.2 11.3 0.00 0.00 0.00 78 1014.7
20260506230517 63 158 7.8 13.9 0.00 0.00 0.00 78 1014.6
20260506230017 63 158 7.8 13.9 0.00 0.00 0.00 78 1014.6
20260506225517 63 158 6.1 14.8 0.00 0.00 0.00 78 1014.5
20260506225017 63 158 9.6 13.9 0.00 0.00 0.00 77 1014.4
20260506224517 63 180 6.1 11.3 0.00 0.00 0.00 77 1014.5
20260506224017 64 180 6.1 10.4 0.00 0.00 0.00 75 1014.4
20260506223517 64 203 8.7 12.2 0.00 0.00 0.00 74 1014.3
20260506223017 64 180 5.2 13.9 0.00 0.00 0.00 73 1014.3
20260506222517 64 203 7.8 13.9 0.00 0.00 0.00 70 1014.3
20260506222017 64 203 8.7 17.4 0.00 0.00 0.00 69 1014.4
20260506221517 64 225 7.8 15.6 0.00 0.00 0.00 69 1014.3
20260506221017 64 203 7.8 14.8 0.00 0.00 0.00 67 1014.3
20260506220516 64 203 7.0 13.0 0.00 0.00 0.00 67 1014.3
20260506220037 65 203 9.6 16.5 0.00 0.00 0.00 66 1014.1
20260506215516 64 225 8.7 18.2 0.00 0.00 0.00 66 1014.2
20260506215037 64 180 7.0 12.2 0.00 0.00 0.00 65 1014.4
20260506214516 64 203 6.1 12.2 0.00 0.00 0.00 65 1014.2
20260506214016 64 203 9.6 14.8 0.00 0.00 0.00 65 1013.9
20260506213516 64 225 9.6 18.2 0.00 0.00 0.00 68 1014.0
20260506213036 63 203 7.8 13.0 0.00 0.00 0.00 72 1014.0
20260506212516 63 225 7.0 10.4 0.00 0.00 0.00 75 1013.9
20260506212016 63 203 6.1 11.3 0.00 0.00 0.00 77 1013.7
20260506211516 63 225 6.1 11.3 0.00 0.00 0.00 78 1013.7
20260506211016 62 225 4.3 8.7 0.00 0.00 0.00 79 1013.7
20260506210516 62 203 5.2 9.6 0.00 0.00 0.00 80 1013.9
20260506210016 62 203 5.2 7.8 0.00 0.00 0.00 82 1014.1
20260506205536 62 203 3.5 6.1 0.00 0.00 0.00 83 1014.2
20260506205016 63 203 3.5 9.6 0.00 0.00 0.00 84 1014.4
20260506204516 63 158 2.6 4.3 0.00 0.00 0.00 84 1014.5
20260506204016 63 180 2.6 6.1 0.00 0.00 0.00 84 1014.6
20260506203516 62 158 3.5 6.1 0.00 0.00 0.00 85 1014.7
20260506203036 63 158 1.7 4.3 0.00 0.00 0.00 84 1014.9
20260506202516 63 203 0.9 2.6 0.00 0.00 0.00 84 1014.9
20260506202016 63 203 1.7 4.3 0.00 0.00 0.00 84 1015.2
20260506201516 63 180 2.6 4.3 0.00 0.00 0.00 84 1015.2
20260506201016 63 158 3.5 5.2 0.00 0.00 0.00 84 1015.3
20260506200536 63 180 4.3 7.8 0.00 0.00 0.00 84 1015.4
20260506200036 63 180 3.5 8.7 0.00 0.00 0.00 84 1015.5
20260506195516 63 158 4.3 8.7 0.00 0.00 0.00 84 1015.6
20260506195016 63 158 5.2 8.7 0.00 0.00 0.00 85 1015.6
20260506194516 63 158 5.2 9.6 0.00 0.00 0.00 85 1015.5
20260506194036 63 158 5.2 8.7 0.00 0.00 0.00 84 1015.5
20260506193516 63 158 4.3 7.8 0.00 0.00 0.00 84 1015.5
20260506193016 63 158 7.0 11.3 0.00 0.00 0.00 85 1015.5
20260506192516 63 158 4.3 8.7 0.00 0.00 0.00 85 1015.5
20260506192036 63 135 5.2 10.4 0.00 0.00 0.00 84 1015.5
20260506191516 63 158 3.5 8.7 0.00 0.00 0.00 84 1015.6
20260506191016 63 135 5.2 13.9 0.00 0.00 0.00 84 1015.6
20260506190516 63 158 5.2 11.3 0.00 0.00 0.00 84 1015.6
20260506190016 63 158 4.3 8.7 0.00 0.00 0.00 84 1015.6
20260506185536 63 158 7.0 13.9 0.00 0.00 0.00 84 1015.6
20260506185016 63 158 6.1 11.3 0.00 0.00 0.00 84 1015.5
20260506184516 63 158 6.1 12.2 0.00 0.00 0.00 84 1015.3
20260506184016 63 158 4.3 8.7 0.00 0.00 0.00 84 1015.4
20260506183516 63 180 6.1 11.3 0.00 0.00 0.00 83 1015.2
20260506183016 63 158 4.3 9.6 0.00 0.00 0.00 83 1015.0
20260506182516 63 158 4.3 8.7 0.00 0.00 0.00 83 1015.0
20260506182036 63 135 5.2 9.6 0.00 0.00 0.00 83 1015.2
20260506181518 63 180 5.2 11.3 0.00 0.00 0.00 83 1015.0
20260506181018 63 158 6.1 11.3 0.00 0.00 0.00 84 1015.0
20260506180538 63 158 5.2 9.6 0.00 0.00 0.00 83 1014.9
20260506180018 63 180 4.3 6.1 0.00 0.00 0.00 84 1014.8
20260506175518 63 180 5.2 9.6 0.00 0.00 0.00 83 1014.9
20260506175038 63 180 6.1 13.0 0.00 0.00 0.00 83 1014.8
20260506174518 63 158 6.1 11.3 0.00 0.00 0.00 83 1014.6
20260506174018 63 158 3.5 7.8 0.00 0.00 0.00 83 1014.6
20260506173518 63 180 3.5 5.2 0.00 0.00 0.00 83 1014.6
20260506173018 64 158 6.1 9.6 0.00 0.00 0.00 83 1014.5
20260506172518 64 158 3.5 6.1 0.00 0.00 0.00 83 1014.5
20260506172018 64 203 3.5 8.7 0.00 0.00 0.00 83 1014.5
20260506171517 64 158 3.5 6.1 0.00 0.00 0.00 83 1014.6
20260506171038 64 158 5.2 9.6 0.00 0.00 0.00 83 1014.7
20260506170518 64 180 5.2 9.6 0.00 0.00 0.00 83 1014.8
20260506170018 64 180 6.1 10.4 0.00 0.00 0.00 83 1014.9
20260506165518 64 180 6.1 10.4 0.00 0.00 0.00 83 1014.8
20260506165018 64 158 7.0 12.2 0.00 0.00 0.00 83 1015.0
20260506164518 64 158 6.1 11.3 0.00 0.00 0.00 83 1014.9
20260506164058 64 158 7.0 12.2 0.00 0.00 0.00 83 1014.9
20260506163517 64 135 5.2 9.6 0.00 0.00 0.00 83 1015.0
20260506163017 64 135 5.2 11.3 0.00 0.00 0.00 83 1015.0
20260506162517 64 158 5.2 10.4 0.00 0.00 0.00 83 1015.1
20260506162018 64 135 7.0 11.3 0.00 0.00 0.00 82 1015.0
20260506161517 64 135 7.0 10.4 0.00 0.00 0.00 82 1015.1
20260506161018 64 135 6.1 10.4 0.00 0.00 0.00 82 1015.3
20260506160517 64 135 5.2 11.3 0.00 0.00 0.00 82 1015.4
20260506160017 64 158 7.0 13.0 0.00 0.00 0.00 82 1015.4
20260506155518 64 135 6.1 12.2 0.00 0.00 0.00 81 1015.4
20260506155038 64 135 5.2 9.6 0.00 0.00 0.00 81 1015.4
20260506154517 65 135 5.2 13.0 0.00 0.00 0.00 81 1015.4
20260506154018 64 135 7.0 11.3 0.00 0.00 0.00 81 1015.5
20260506153517 64 135 7.8 13.0 0.00 0.00 0.00 81 1015.5
20260506153018 64 158 7.8 14.8 0.00 0.00 0.00 81 1015.5
20260506152517 65 135 5.2 12.2 0.00 0.00 0.00 81 1015.5
20260506152018 65 135 6.1 9.6 0.00 0.00 0.00 81 1015.5
20260506151517 65 135 8.7 13.9 0.00 0.00 0.00 80 1015.5
20260506151017 65 135 7.0 12.2 0.00 0.00 0.00 80 1015.6
20260506150537 65 135 9.6 18.2 0.00 0.00 0.00 80 1015.4
20260506150017 66 135 8.7 14.8 0.00 0.00 0.00 79 1015.3
20260506145517 65 180 7.8 14.8 0.00 0.00 0.00 78 1015.3
20260506145017 66 158 8.7 15.6 0.00 0.00 0.00 78 1015.5
20260506144517 65 135 9.6 16.5 0.00 0.00 0.00 78 1015.4
20260506144017 66 158 8.7 13.0 0.00 0.00 0.00 79 1015.4
20260506143517 65 135 7.8 14.8 0.00 0.00 0.00 80 1015.2
20260506143017 65 158 8.7 14.8 0.00 0.00 0.00 80 1015.2
20260506142518 65 158 8.7 15.6 0.00 0.00 0.00 79 1015.0
20260506142017 65 158 7.8 14.8 0.00 0.00 0.00 79 1015.0
20260506141517 66 158 7.8 15.6 0.00 0.00 0.00 78 1015.0
20260506141017 65 135 7.8 14.8 0.00 0.00 0.00 79 1015.0
20260506140517 65 135 10.4 18.2 0.00 0.00 0.00 79 1015.2
20260506140017 65 135 10.4 18.2 0.00 0.00 0.00 79 1015.2
20260506135517 66 135 8.7 19.1 0.00 0.00 0.00 78 1015.3
20260506135037 66 158 8.7 14.8 0.00 0.00 0.00 79 1015.2
20260506134518 65 135 9.6 16.5 0.00 0.00 0.00 79 1015.3
20260506134017 66 135 9.6 14.8 0.00 0.00 0.00 78 1015.2
20260506133518 66 135 9.6 15.6 0.00 0.00 0.00 78 1015.3
20260506133017 66 135 9.6 15.6 0.00 0.00 0.00 78 1015.3
20260506132557 66 158 8.7 16.5 0.00 0.00 0.00 78 1015.4
20260506132037 66 135 9.6 17.4 0.00 0.00 0.00 78 1015.4
20260506131517 66 135 10.4 16.5 0.00 0.00 0.00 78 1015.4
20260506131017 66 135 9.6 20.0 0.00 0.00 0.00 78 1015.5
20260506130537 67 158 8.7 18.2 0.00 0.00 0.00 77 1015.5
20260506130017 66 158 10.4 17.4 0.00 0.00 0.00 79 1015.6
20260506125517 65 135 9.6 15.6 0.00 0.00 0.00 78 1015.6
20260506125017 66 135 10.4 19.1 0.00 0.00 0.00 78 1015.6
20260506124537 66 135 10.4 18.2 0.00 0.00 0.00 78 1015.6
20260506124017 66 158 8.7 18.2 0.00 0.00 0.00 78 1015.8
20260506123517 66 135 11.3 20.9 0.00 0.00 0.00 79 1015.7
20260506123017 66 135 10.4 20.9 0.00 0.00 0.00 78 1015.7
20260506122537 66 158 9.6 19.1 0.00 0.00 0.00 77 1015.9
20260506122017 66 135 7.8 16.5 0.00 0.00 0.00 78 1015.9
20260506121517 66 135 8.7 16.5 0.00 0.00 0.00 78 1015.7
20260506121017 66 135 8.7 13.9 0.00 0.00 0.00 78 1015.8
20260506120517 66 135 9.6 16.5 0.00 0.00 0.00 78 1015.8
20260506120017 66 135 8.7 15.6 0.00 0.00 0.00 78 1015.7
20260506115537 66 158 7.0 13.9 0.00 0.00 0.00 78 1015.6
20260506115017 66 158 9.6 16.5 0.00 0.00 0.00 78 1015.8
20260506114517 66 158 10.4 17.4 0.00 0.00 0.00 77 1015.9
20260506114037 66 135 9.6 15.6 0.00 0.00 0.00 78 1016.0
20260506113517 66 135 9.6 16.5 0.00 0.00 0.00 77 1016.0
20260506113017 66 135 9.6 16.5 0.00 0.00 0.00 77 1016.0
20260506112517 66 135 10.4 17.4 0.00 0.00 0.00 77 1016.2
20260506112017 66 135 9.6 15.6 0.00 0.00 0.00 78 1016.0
20260506111517 66 135 9.6 14.8 0.00 0.00 0.00 79 1016.1
20260506111017 66 135 9.6 15.6 0.00 0.00 0.00 79 1016.1
20260506110517 66 158 10.4 15.6 0.00 0.00 0.00 79 1016.1
20260506110017 66 158 9.6 16.5 0.00 0.00 0.00 79 1016.3
20260506105517 66 135 9.6 15.6 0.00 0.00 0.00 80 1016.2
20260506105017 66 135 10.4 17.4 0.00 0.00 0.00 81 1016.1
20260506104517 66 113 10.4 15.6 0.00 0.00 0.00 81 1016.1
20260506104017 66 135 9.6 18.2 0.00 0.00 0.00 81 1016.2
20260506103537 66 135 9.6 14.8 0.00 0.00 0.00 81 1016.2